Powrót do katalogu

CZ-3B R/B

AktywnyHEO
NORAD 63525·ROCKET BODY·🇨🇳 China

Wystrzelony Apr 10, 2025 z Xichang Satellite Launch Center

Loading…

Następne Przeloty (najbliższe 24 godziny)

TLE

ŚwieżeSource: Space-Track

Epoka: Sep 14, 2026, 04:56 UTC

1 63525U 25073B   26257.20578776  .00300518  23811-6  15635-2 0  9992
2 63525  19.2094 128.5596 5991292  44.9079 350.3053  4.17520276 16666

Śledź CZ-3B R/B w czasie rzeczywistym z AllMySat

Download on the App Store